When you browse on this site, cookies collect data to enhance your experience and personalize the content and advertising you see.
Visit our Privacy Policy to learn more. By continuing to use the site, you agree to this use of cookies and data.
  • In United Kingdom
  • List of Countries
  • For 7 days
  • Water Temperature
  • Weather Map
  • Weather Widgets
  • user-avatar
    Login

    Hourly Weather Gan Yavne

    Today, 19 September, Thursday

    Time Temperature Precipitation Wind Pressure Humidity
    00:00 +25°C° 0 mm 2 mps 756 mmHg 83%
    01:00 +24°C° 0 mm 1 mps 755 mmHg 85%
    02:00 +24°C° 0 mm 2 mps 755 mmHg 87%
    03:00 +24°C° 0 mm 2 mps 756 mmHg 86%
    04:00 +24°C° 0 mm 2 mps 756 mmHg 86%
    05:00 +24°C° 0 mm 2 mps 756 mmHg 86%
    06:00 +26°C° 0 mm 2 mps 756 mmHg 79%
    07:00 +28°C° 0 mm 1 mps 756 mmHg 72%
    08:00 +30°C° 0 mm 1 mps 756 mmHg 66%
    09:00 +31°C° 0 mm 2 mps 756 mmHg 60%
    10:00 +34°C° 0 mm 3 mps 756 mmHg 54%
    11:00 +35°C° 0 mm 4 mps 756 mmHg 49%
    12:00 +35°C° 0 mm 5 mps 755 mmHg 51%
    13:00 +35°C° 0 mm 6 mps 755 mmHg 54%
    14:00 +35°C° 0 mm 6 mps 754 mmHg 57%
    15:00 +34°C° 0 mm 6 mps 754 mmHg 60%
    16:00 +32°C° 0 mm 6 mps 754 mmHg 64%
    17:00 +30°C° 0 mm 6 mps 754 mmHg 68%
    18:00 +29°C° 0 mm 5 mps 755 mmHg 73%
    19:00 +28°C° 0 mm 4 mps 755 mmHg 78%
    20:00 +26°C° 0 mm 2 mps 755 mmHg 83%
    21:00 +26°C° 0 mm 2 mps 755 mmHg 83%
    22:00 +26°C° 0 mm 2 mps 755 mmHg 83%
    23:00 +25°C° 0 mm 2 mps 755 mmHg 83%

    Tomorrow, 20 September, Friday

    Time Temperature Precipitation Wind Pressure Humidity
    00:00 +25°C° 0 mm 2 mps 755 mmHg 84%
    01:00 +25°C° 0 mm 2 mps 755 mmHg 84%
    02:00 +24°C° 0 mm 1 mps 755 mmHg 85%
    03:00 +24°C° 0 mm 2 mps 755 mmHg 85%
    04:00 +24°C° 0 mm 2 mps 755 mmHg 86%
    05:00 +24°C° 0 mm 2 mps 755 mmHg 86%
    06:00 +25°C° 0 mm 1 mps 755 mmHg 79%
    07:00 +27°C° 0 mm 1 mps 755 mmHg 72%
    08:00 +29°C° 0 mm 1 mps 756 mmHg 65%
    09:00 +30°C° 0 mm 2 mps 755 mmHg 58%
    10:00 +33°C° 0 mm 3 mps 755 mmHg 52%
    11:00 +34°C° 0 mm 4 mps 755 mmHg 45%
    12:00 +34°C° 0 mm 4 mps 755 mmHg 46%
    13:00 +34°C° 0 mm 5 mps 754 mmHg 46%
    14:00 +33°C° 0 mm 6 mps 754 mmHg 47%
    15:00 +32°C° 0 mm 6 mps 754 mmHg 51%
    16:00 +30°C° 0 mm 6 mps 754 mmHg 55%
    17:00 +29°C° 0 mm 5 mps 754 mmHg 59%
    18:00 +28°C° 0 mm 4 mps 755 mmHg 65%
    19:00 +26°C° 0 mm 3 mps 755 mmHg 71%
    20:00 +25°C° 0 mm 2 mps 755 mmHg 77%
    21:00 +24°C° 0 mm 2 mps 755 mmHg 77%
    22:00 +24°C° 0 mm 2 mps 756 mmHg 78%
    23:00 +23°C° 0 mm 1 mps 756 mmHg 79%

    Day after tomorrow, 21 September, Saturday

    Time Temperature Precipitation Wind Pressure Humidity
    00:00 +23°C° 0 mm 1 mps 755 mmHg 80%
    01:00 +23°C° 0 mm 1 mps 755 mmHg 80%
    02:00 +23°C° 0 mm 1 mps 755 mmHg 81%
    03:00 +23°C° 0 mm 1 mps 755 mmHg 81%
    04:00 +22°C° 0 mm 1 mps 755 mmHg 81%
    05:00 +22°C° 0 mm 1 mps 755 mmHg 81%
    06:00 +24°C° 0 mm 1 mps 756 mmHg 74%
    07:00 +26°C° 0 mm 1 mps 756 mmHg 68%
    08:00 +27°C° 0 mm 2 mps 756 mmHg 61%
    09:00 +29°C° 0 mm 2 mps 756 mmHg 55%
    10:00 +30°C° 0 mm 3 mps 756 mmHg 48%
    11:00 +32°C° 0 mm 4 mps 755 mmHg 42%
    12:00 +32°C° 0 mm 4 mps 755 mmHg 42%
    13:00 +32°C° 0 mm 5 mps 755 mmHg 42%
    14:00 +32°C° 0 mm 5 mps 754 mmHg 42%
    15:00 +30°C° 0 mm 5 mps 754 mmHg 47%
    16:00 +29°C° 0 mm 5 mps 754 mmHg 52%
    17:00 +28°C° 0 mm 4 mps 754 mmHg 57%
    18:00 +27°C° 0 mm 3 mps 754 mmHg 65%
    19:00 +25°C° 0 mm 2 mps 755 mmHg 73%
    20:00 +23°C° 0 mm 1 mps 755 mmHg 81%
    21:00 +23°C° 0 mm 1 mps 755 mmHg 82%
    22:00 +23°C° 0 mm 1 mps 755 mmHg 83%
    23:00 +22°C° 0 mm 1 mps 755 mmHg 84%

    22 September, Sunday

    Time Temperature Precipitation Wind Pressure Humidity
    00:00 +22°C° 0 mm 1 mps 755 mmHg 84%
    01:00 +22°C° 0 mm 1 mps 754 mmHg 84%
    02:00 +22°C° 0 mm 1 mps 754 mmHg 85%
    03:00 +21°C° 0 mm 2 mps 754 mmHg 85%
    04:00 +21°C° 0 mm 2 mps 754 mmHg 86%
    05:00 +21°C° 0 mm 2 mps 754 mmHg 86%
    06:00 +24°C° 0 mm 2 mps 755 mmHg 81%
    07:00 +25°C° 0 mm 2 mps 755 mmHg 75%
    08:00 +27°C° 0 mm 2 mps 755 mmHg 70%
    09:00 +28°C° 0 mm 2 mps 755 mmHg 62%
    10:00 +30°C° 0 mm 2 mps 755 mmHg 55%
    11:00 +31°C° 0 mm 3 mps 755 mmHg 48%
    12:00 +33°C° 0 mm 4 mps 755 mmHg 48%
    13:00 +33°C° 0 mm 4 mps 754 mmHg 49%
    14:00 +33°C° 0 mm 5 mps 754 mmHg 49%
    15:00 +32°C° 0 mm 5 mps 754 mmHg 54%
    16:00 +30°C° 0 mm 5 mps 754 mmHg 59%
    17:00 +29°C° 0 mm 5 mps 754 mmHg 64%
    18:00 +27°C° 0 mm 4 mps 754 mmHg 70%
    19:00 +26°C° 0 mm 3 mps 755 mmHg 76%
    20:00 +25°C° 0 mm 3 mps 755 mmHg 81%
    21:00 +24°C° 0 mm 2 mps 755 mmHg 82%
    22:00 +24°C° 0 mm 2 mps 755 mmHg 83%
    23:00 +23°C° 0 mm 1 mps 755 mmHg 85%

    23 September, Monday

    Time Temperature Precipitation Wind Pressure Humidity
    00:00 +23°C° 0 mm 1 mps 755 mmHg 85%
    01:00 +23°C° 0 mm 1 mps 755 mmHg 85%
    02:00 +23°C° 0 mm 1 mps 755 mmHg 86%
    03:00 +22°C° 0 mm 1 mps 755 mmHg 87%
    04:00 +22°C° 0 mm 1 mps 755 mmHg 87%
    05:00 +22°C° 0 mm 1 mps 756 mmHg 88%
    06:00 +24°C° 0 mm 1 mps 756 mmHg 81%
    07:00 +26°C° 0 mm 1 mps 756 mmHg 74%
    08:00 +27°C° 0 mm 1 mps 757 mmHg 67%
    09:00 +29°C° 0 mm 2 mps 756 mmHg 60%
    10:00 +30°C° 0 mm 3 mps 756 mmHg 54%
    11:00 +33°C° 0 mm 3 mps 756 mmHg 47%
    12:00 +33°C° 0 mm 4 mps 756 mmHg 47%
    13:00 +33°C° 0 mm 5 mps 755 mmHg 47%
    14:00 +33°C° 0 mm 6 mps 755 mmHg 47%
    15:00 +32°C° 0 mm 5 mps 754 mmHg 52%
    16:00 +30°C° 0 mm 5 mps 754 mmHg 57%
    17:00 +29°C° 0 mm 5 mps 754 mmHg 62%
    18:00 +27°C° 0 mm 5 mps 755 mmHg 69%
    19:00 +26°C° 0 mm 4 mps 755 mmHg 75%
    20:00 +25°C° 0 mm 3 mps 756 mmHg 81%
    21:00 +25°C° 0 mm 3 mps 756 mmHg 83%
    22:00 +24°C° 0 mm 2 mps 756 mmHg 84%
    23:00 +24°C° 0 mm 2 mps 756 mmHg 85%

    24 September, Tuesday

    Time Temperature Precipitation Wind Pressure Humidity
    00:00 +23°C° 0 mm 2 mps 755 mmHg 86%
    01:00 +23°C° 0 mm 2 mps 755 mmHg 87%
    02:00 +23°C° 0 mm 1 mps 755 mmHg 87%
    03:00 +22°C° 0 mm 1 mps 755 mmHg 87%
    04:00 +22°C° 0 mm 1 mps 755 mmHg 87%
    05:00 +22°C° 0 mm 1 mps 755 mmHg 87%
    06:00 +24°C° 0 mm 1 mps 756 mmHg 79%
    07:00 +26°C° 0 mm 1 mps 756 mmHg 72%
    08:00 +27°C° 0 mm 1 mps 756 mmHg 64%
    09:00 +29°C° 0 mm 2 mps 756 mmHg 58%
    10:00 +30°C° 0 mm 3 mps 756 mmHg 51%
    11:00 +33°C° 0 mm 4 mps 756 mmHg 45%
    12:00 +33°C° 0 mm 5 mps 755 mmHg 46%
    13:00 +33°C° 0 mm 5 mps 755 mmHg 46%
    14:00 +33°C° 0 mm 6 mps 754 mmHg 47%
    15:00 +32°C° 0 mm 6 mps 754 mmHg 51%
    16:00 +30°C° 0 mm 6 mps 754 mmHg 55%
    17:00 +28°C° 0 mm 6 mps 754 mmHg 59%
    18:00 +27°C° 0 mm 5 mps 754 mmHg 66%
    19:00 +26°C° 0 mm 4 mps 754 mmHg 72%
    20:00 +25°C° 0 mm 4 mps 755 mmHg 78%
    21:00 +24°C° 0 mm 3 mps 754 mmHg 79%
    22:00 +22°C° 0 mm 3 mps 754 mmHg 81%
    23:00 +23°C° 0 mm 2 mps 754 mmHg 83%
    Show more